Find Starlink 32158

NORAD ID: 60267 Int'l Des: 2024-131 Owner: SPXS Country: US Constellation: starlink operational
LEOCIRCULAR

Current View

Loading 3D Globe...

About Starlink 32158

Starlink 32158 (NORAD 60267) is a starlink constellation satellite (v2 mini) launched Jul 27, 2024 by SPXS of US. It operates in LEO, CIRCULAR orbit with a mass of 730.00 kg.

Upcoming Passes

Passes for default location (London). Set your location on the main map for personalized predictions.

Altitude History

Loading altitude history...

Two-Line Element Set

1 60267U 24131N 26236.33342830 -.00000467 00000-0 -26716-5 0 9993
2 60267 53.1614 352.4652 0001422 75.9463 284.1697 15.34384251117308
Epoch: Aug 24, 2026 • Age: 27 hours

Current Status

Altitude 465.9 km
Apogee / Perigee N/A
Velocity 7.64 km/s
Sub-Earth Point 42.04°N, 106.61°W
Launch Date Jul 27, 2024
Age 2 years
Type internet

Technical Details

Classification Payload
Mass 730.00 kg
Dry Mass 700.00 kg
Total Mass 730.00 kg
Length 0.30 m
Diameter 4.10 m
Span 29.00 m
Shape Box + pan
Manufacturer SPXS
Bus Type Starlink V2M
Phase Status In Orbit
Owner/State SPXS/US

Most Searched